Regional Weather Roundup
Issued by NWS

Home | Current Version | Previous Version | Graphics & Text | Print | Product List | Glossary On
Versions: 1 2 3 4 5 6 7 8 9 10 11 12 13 14 15 16 17 18 19 20 21 22 23 24 25 26 27 28 29 30 31 32 33 34 35 36 37 38 39 40 41 42 43 44 45 46 47 48 49 50
000
ASUS45 KCYS 110910
RWRWY

WYOMING REGIONAL WEATHER ROUNDUP
NATIONAL WEATHER SERVICE CHEYENNE WY
200 AM MST MON DEC 11 2017

NOTE:  "FAIR" INDICATES FEW OR NO CLOUDS BELOW 12,000 FEET
WITH NO SIGNIFICANT WEATHER AND/OR OBSTRUCTIONS TO VISIBILITY.

WYZ001-111000-
YELLOWSTONE NATIONAL PARK

CITY           SKY/WX    TMP DP  RH WIND       PRES   REMARKS
LK YELLOWSTONE   N/A      4   1  88 CALM      30.58F
W YELLOWSTONE  NOT AVBL

$$
WYZ002>013-054>058-071-098>099-111000-
NORTHERN WYOMING

CITY           SKY/WX    TMP DP  RH WIND       PRES   REMARKS
JACKSON        FAIR       9   6  88 NE5       30.61  WCI   1
CODY           FAIR      34   7  32 CALM      30.39
GREYBULL       FAIR      14   9  80 NW6       30.41R WCI   5
WORLAND        FAIR      14  12  92 CALM      30.39S
SHERIDAN       FAIR      35  14  42 VRB5      30.34R WCI  31
BUFFALO        FAIR      44   6  21 NW17      30.33R
GILLETTE       FAIR      34  15  46 W12       30.28S WCI  25
HULETT         FAIR      41  19  42 NW16G25   30.27R
NEWCASTLE      FAIR      39  12  33 NW13      30.24S WCI  32

$$
WYZ014>020-022>026-101>103-111000-
CENTRAL WYOMING

CITY           SKY/WX    TMP DP  RH WIND       PRES   REMARKS
BIG PINEY      FAIR      23   0  36 S3        30.50F
PINEDALE       FAIR      27   3  36 NW13      30.49F WCI  16
DUBOIS         FAIR      34   0  23 NW13      30.46F WCI  25
LANDER         FAIR      26  14  60 CALM      30.39F
RIVERTON       FAIR      17  12  80 N3        30.41F
CASPER         FAIR      32  13  45 SW14      30.37R WCI  22
DOUGLAS        FAIR      24  17  74 W6        30.34S WCI  17

$$
WYZ021-027>030-104>119-111000-
SOUTHERN WYOMING

CITY           SKY/WX    TMP DP  RH WIND       PRES   REMARKS
EVANSTON       FAIR      28   5  37 S3        30.55F
FORT BRIDGER   FAIR      37   1  22 W12       30.55S WCI  29
ROCK SPRINGS   FAIR      28   6  39 W9        30.50S WCI  19
DIXON          FAIR      11   5  75 CALM      30.56R
RAWLINS        FAIR      30   7  37 SW13      30.45F WCI  20
SARATOGA       FAIR      19   7  58 CALM      30.48F
LARAMIE        FAIR      15   4  61 CALM      30.40S
CHEYENNE       FAIR      38   0  20 NW16      30.32F WCI  29
TORRINGTON     FAIR      34  14  43 NW13      30.28S WCI  25
PINE BLUFFS    FAIR      41   1  19 MISG      30.30F

$$



USA.gov is the U.S. government's official web portal to all federal, state and local government web resources and services.